Theta_e
330 334 340 339 339 338 337 336 335 334 332 331 329 329 329 329 329 328 328 329 329 330 330 330 331 333 339 344 345 344 343 344 344 345 345 346 347 347 347 347 347 345 347
331 334 338 338 337 336 336 335 333 332 330 330 328 328 328 328 327 327 327 328 329 329 330 331 331 334 337 341 343 342 342 343 343 343 344 345 344 345 347 346 346 345 346
329 332 334 337 335 334 333 333 332 331 329 328 326 327 329 326 325 325 325 326 327 328 329 331 332 335 336 339 340 339 338 342 341 340 339 336 338 343 344 344 344 345 345
329 329 329 334 333 333 331 330 330 329 328 327 327 325 326 327 324 323 323 324 326 327 328 330 332 331 332 336 337 336 336 335 334 332 330 333 336 342 342 343 343 343 344
327 329 329 333 332 331 330 329 328 326 326 325 324 324 324 327 323 321 321 322 323 325 327 328 330 331 332 333 334 333 333 334 331 326 322 325 332 337 339 340 340 342 342
327 329 332 333 331 329 328 327 326 324 323 323 323 322 323 324 322 320 318 320 321 323 324 326 326 328 330 330 330 330 330 333 327 319 320 327 325 335 335 336 336 339 340
326 327 327 332 330 328 326 325 324 323 323 322 322 322 322 322 321 318 316 318 318 319 321 324 324 326 327 327 327 328 329 330 319 318 318 319 322 330 331 332 333 334 336
325 324 325 329 328 327 325 324 323 322 321 321 320 319 317 318 318 316 316 316 317 317 317 319 321 322 323 323 324 325 328 327 320 317 317 318 326 327 327 328 329 330 333
323 322 322 322 324 325 326 325 324 323 322 320 319 318 316 314 315 315 315 315 316 317 315 315 315 316 317 318 320 323 328 324 314 315 316 315 325 325 325 325 326 327 328
322 321 320 319 318 317 317 323 322 321 322 321 319 319 318 315 315 315 316 316 315 315 315 314 314 314 314 315 317 322 326 320 311 311 311 314 321 321 321 322 322 325 326
324 321 319 318 317 315 315 319 322 323 321 321 320 319 318 310 308 312 316 317 316 315 313 312 311 312 314 314 314 319 311 307 309 309 310 323 320 320 318 318 320 320 323
320 321 319 317 317 316 319 315 315 315 315 313 314 311 310 309 309 311 315 319 317 316 316 315 314 314 313 304 304 308 303 308 307 308 310 323 319 318 317 316 315 318 318
323 324 324 323 321 319 315 314 313 312 312 312 311 310 307 308 308 312 308 309 307 313 307 309 308 306 306 304 305 303 302 304 306 307 312 321 316 315 314 314 313 313 315
320 322 324 323 321 319 319 317 312 312 311 311 312 310 308 307 306 305 305 304 304 306 305 305 304 305 304 306 306 305 304 303 304 304 308 319 316 313 313 313 312 312 312
319 319 322 319 320 319 318 315 313 312 313 310 310 310 309 307 307 307 307 306 305 305 304 304 305 306 307 306 306 306 306 303 305 304 304 317 316 312 312 312 312 312 311
318 317 318 318 317 317 315 315 312 313 313 312 310 311 311 308 307 307 307 309 307 306 307 306 307 308 306 306 306 306 307 306 303 304 303 307 317 316 313 313 313 312 312
317 318 318 317 316 315 315 313 314 314 315 313 313 316 312 312 308 307 307 307 309 310 310 311 311 309 307 309 308 307 307 306 306 304 304 303 308 317 317 314 314 313 312
316 317 318 321 317 315 313 313 314 314 312 312 312 312 313 313 311 308 308 308 310 310 310 309 309 310 310 310 308 306 308 306 306 305 304 303 303 305 314 317 315 314 313
313 315 315 315 315 314 312 312 311 315 312 311 312 316 315 315 316 314 314 313 313 310 309 310 310 308 306 305 307 306 308 309 307 309 307 305 303 303 302 312 317 317 315
306 307 306 307 309 310 310 311 312 311 311 312 312 312 311 311 315 315 312 313 314 312 312 312 310 310 309 306 310 310 309 308 308 308 307 309 305 304 302 302 308 311 316
303 304 304 302 301 306 307 306 301 301 302 301 303 306 305 304 305 303 303 304 307 309 311 311 308 308 307 306 306 302 306 309 306 308 309 308 306 307 303 302 302 305 308
298 298 298 298 299 299 299 298 299 297 298 299 299 301 301 302 303 303 302 300 300 299 300 303 304 303 304 306 304 303 299 300 304 307 305 305 306 307 307 304 303 304 303
296 296 296 298 300 300 300 299 298 298 298 297 298 298 299 300 300 299 297 297 296 297 296 296 297 298 299 302 307 304 298 297 300 301 302 303 303 303 304 306 305 304 303
294 295 296 300 299 299 298 297 295 294 294 296 295 296 296 297 296 297 296 295 295 295 294 294 297 294 294 295 299 305 304 300 294 293 300 304 304 304 303 304 306 306 306
294 294 295 298 298 297 296 296 294 293 293 294 293 292 292 293 294 294 295 293 292 293 294 294 296 296 295 294 293 293 295 301 302 299 296 299 301 302 303 303 306 306 306
292 292 295 296 296 296 295 294 293 292 292 291 291 290 290 290 290 291 291 290 290 290 290 291 292 293 295 296 296 296 295 294 296 298 297 297 297 300 303 304 303 304 305
Wind_Speed
2 5 11 15 15 13 13 14 13 13 12 12 11 10 10 12 11 10 10 9 9 9 9 8 8 5 8 11 14 14 15 15 13 15 15 15 16 16 14 15 12 9 10
7 5 9 13 15 13 14 14 13 11 11 11 10 9 9 11 10 9 9 9 9 9 9 7 9 5 7 10 11 13 11 13 14 16 17 16 16 16 18 15 13 10 11
8 6 8 12 14 14 13 12 11 10 10 10 9 9 9 9 9 9 9 9 8 9 8 7 10 6 5 6 13 16 15 11 14 15 15 9 9 16 17 16 13 13 12
9 7 7 13 13 13 13 11 10 10 9 9 9 8 7 9 8 8 8 8 7 8 8 6 9 6 6 8 13 14 13 13 15 13 6 8 10 16 16 15 15 14 13
8 7 8 12 12 11 11 10 10 9 9 7 7 7 6 9 8 6 7 7 7 7 7 6 6 10 9 4 11 12 9 10 14 10 6 6 7 12 15 15 14 15 13
8 7 9 11 11 10 10 9 9 9 7 7 7 6 6 7 6 5 5 6 6 6 6 5 4 7 9 9 9 8 8 9 13 6 5 9 6 13 13 14 14 14 12
7 6 7 10 10 9 8 8 8 7 6 6 5 5 4 5 5 4 3 3 4 4 4 3 3 4 5 5 5 6 10 13 8 5 6 4 7 13 12 13 13 12 11
9 6 5 10 10 9 8 7 7 7 6 5 4 4 3 3 3 2 2 2 3 3 3 2 3 3 4 4 5 8 7 14 8 6 5 3 11 11 11 11 12 11 10
7 6 5 4 6 8 7 7 7 7 7 5 4 3 2 2 2 2 2 1 1 2 2 2 4 5 5 6 7 9 11 13 6 4 5 3 11 10 10 9 9 9 9
6 6 6 4 4 3 4 7 7 7 7 7 5 5 4 3 3 3 4 3 2 1 1 2 5 6 7 8 9 8 10 10 4 4 3 4 10 9 8 8 7 7 8
5 6 5 6 5 5 4 5 7 7 8 8 8 8 6 2 3 5 6 7 5 4 4 4 5 6 7 8 9 8 2 2 4 2 1 8 9 9 8 6 6 6 6
6 7 7 6 7 6 5 5 3 3 3 3 4 4 3 3 4 6 9 11 8 6 6 6 6 7 7 3 3 5 1 4 3 3 2 8 8 7 7 6 4 4 4
11 8 10 7 5 5 3 2 2 2 3 4 6 5 3 3 4 4 3 3 3 7 3 4 3 2 5 4 3 1 4 3 3 2 3 5 6 6 4 4 3 3 1
7 7 7 6 5 5 3 2 3 2 4 4 5 6 4 3 3 3 3 4 4 3 5 4 3 4 5 5 4 2 4 2 3 2 3 6 6 6 5 4 2 1 0
7 6 6 5 4 4 3 3 3 3 3 4 4 6 5 5 5 4 5 4 5 3 4 4 4 4 5 6 6 5 3 5 5 3 3 8 6 5 6 6 5 4 2
6 7 6 5 4 3 4 4 3 3 4 3 4 4 7 5 5 5 4 4 5 5 5 5 6 5 6 5 6 6 6 4 6 6 4 5 10 9 8 7 7 6 5
4 7 8 7 7 7 6 4 4 4 3 4 4 5 6 7 7 6 5 5 5 5 6 5 5 4 4 5 6 6 6 7 6 7 6 5 5 10 10 10 8 7 6
7 9 9 6 8 8 6 5 4 3 3 4 4 4 6 6 6 6 5 6 6 5 4 4 5 4 5 5 5 5 5 5 6 7 6 5 5 5 9 13 12 10 9
9 9 8 8 9 7 2 3 2 3 4 5 4 4 7 4 4 4 6 4 4 4 3 3 3 3 3 3 4 4 4 4 6 5 7 9 8 6 5 11 14 12 12
9 6 2 3 3 2 1 2 3 3 3 4 4 5 6 5 6 2 4 4 3 3 4 4 5 2 4 4 3 4 4 3 4 4 4 5 6 8 8 7 6 7 14
6 7 7 8 8 4 3 3 3 3 3 4 6 9 7 5 6 6 4 5 4 3 4 4 3 6 4 4 1 2 4 5 7 5 5 3 5 7 6 6 5 4 6
8 8 8 8 7 5 3 2 3 1 2 3 4 6 7 9 10 9 8 7 7 5 7 6 3 2 3 5 3 2 4 3 4 8 6 6 8 4 4 7 7 7 6
8 8 8 8 8 7 7 3 2 2 2 3 5 3 5 7 8 7 7 5 5 4 4 5 6 6 3 4 8 4 3 5 2 2 6 5 6 5 6 6 8 9 8
5 6 8 9 8 8 6 6 7 3 2 3 3 3 4 5 5 5 5 4 5 3 4 3 4 3 4 4 3 4 4 4 3 3 2 3 4 5 6 5 7 10 10
6 7 7 8 7 6 7 7 4 3 1 2 2 4 3 3 3 2 3 3 3 3 4 5 4 3 2 2 2 3 2 4 9 9 9 3 2 4 5 5 7 6 9
5 6 7 8 7 7 7 6 6 4 3 3 3 3 4 3 4 4 5 3 4 4 3 4 5 5 5 4 3 4 4 3 2 5 9 8 11 7 5 5 5 6 5
Wind_Direction
122 115 120 111 98 93 91 88 80 79 81 79 80 78 79 71 59 50 50 46 50 50 50 50 60 74 110 91 94 94 83 75 68 70 73 69 67 67 71 71 68 71 87
125 107 112 104 101 94 85 87 81 87 88 86 83 78 79 76 59 48 43 43 44 43 44 53 72 104 110 93 96 92 94 92 82 72 68 67 69 62 62 63 66 73 79
105 103 98 99 99 98 95 90 98 99 96 91 83 83 77 75 62 48 41 39 43 42 44 58 81 122 82 98 87 72 64 87 86 83 72 64 59 64 59 57 66 67 75
107 96 95 105 108 108 107 106 103 96 97 94 91 90 82 85 66 51 41 40 42 44 42 58 89 73 53 40 75 62 66 80 86 79 68 66 63 64 62 55 57 62 67
111 116 116 116 113 111 108 108 101 95 91 90 89 83 80 89 74 50 40 39 43 49 43 60 64 65 42 28 46 40 50 87 95 79 66 69 71 64 61 58 49 51 57
113 112 116 119 121 120 119 118 115 107 103 103 95 89 92 80 69 55 38 39 40 44 54 61 58 56 32 25 9 25 24 105 93 71 61 85 78 79 69 61 54 53 55
133 135 131 134 132 129 124 126 119 113 100 107 105 105 94 83 105 97 74 48 43 44 48 46 63 50 40 1 8 15 15 122 103 100 84 77 83 86 77 72 65 54 53
145 122 144 144 140 133 133 135 137 141 140 132 132 123 114 108 109 95 89 66 58 62 57 33 11 7 16 5 355 31 52 118 109 97 95 97 90 81 76 71 69 63 54
127 137 146 144 146 145 150 157 153 151 160 159 160 162 148 144 141 127 117 102 51 58 40 11 345 347 357 6 4 33 96 121 109 116 111 89 100 91 85 79 73 72 65
141 151 159 154 144 167 179 182 188 189 182 182 188 195 197 196 201 198 187 193 200 239 304 330 333 339 350 359 5 51 96 104 96 98 114 112 108 99 84 74 69 62 66
151 175 176 176 181 196 212 215 212 218 213 210 209 210 206 169 234 242 208 221 214 225 254 288 303 320 332 354 4 52 89 130 120 120 130 122 112 106 100 87 70 57 51
182 193 193 193 196 199 218 211 213 245 282 258 252 245 238 214 227 223 236 225 218 230 251 257 285 307 325 336 331 9 49 128 125 161 203 140 129 116 110 105 95 62 47
197 193 194 207 193 212 228 209 211 214 237 244 244 247 231 245 246 246 224 261 242 242 248 286 289 293 300 316 323 28 110 148 161 185 194 163 147 136 128 113 105 106 77
175 174 170 188 187 165 157 140 174 193 220 233 230 229 218 227 230 222 226 243 247 239 234 243 246 246 252 263 256 273 109 118 162 180 223 193 174 165 170 171 173 148 97
171 146 166 172 186 178 162 175 193 213 222 249 220 226 188 224 219 192 215 221 228 223 232 241 241 240 242 223 224 206 214 158 178 192 193 212 198 200 203 201 201 205 212
146 166 157 174 188 187 214 227 244 257 258 244 215 220 217 212 228 227 223 216 221 207 216 219 228 223 234 210 219 216 218 191 185 192 204 220 204 209 221 224 219 219 224
166 151 181 186 191 212 237 240 226 234 241 251 263 243 219 223 233 231 226 236 226 213 217 222 220 212 224 238 240 221 210 211 189 192 195 210 223 210 214 225 231 230 235
152 173 192 189 198 212 225 233 247 283 293 292 299 301 286 283 272 269 237 236 234 235 219 210 218 231 206 190 236 239 224 230 224 192 190 194 209 211 216 215 219 224 231
173 183 202 198 206 216 299 345 309 272 276 273 273 282 288 282 253 239 244 254 320 296 267 255 275 234 261 244 243 245 261 231 231 228 208 198 200 206 208 224 214 214 219
186 191 13 39 0 11 264 277 283 302 314 308 337 8 359 8 359 299 268 276 199 250 263 268 242 243 239 233 232 248 240 261 263 243 221 238 213 209 195 197 213 212 214
55 77 67 73 28 45 23 355 26 7 355 27 27 22 24 12 3 31 23 11 5 325 272 252 222 222 234 200 153 295 274 243 248 230 221 219 242 219 221 194 201 203 210
93 81 73 76 73 61 66 33 60 334 21 79 23 23 13 15 18 36 23 19 11 2 357 334 270 250 236 195 188 177 243 287 238 228 220 208 220 222 221 218 204 205 203
82 83 80 84 68 53 50 50 32 41 20 8 12 25 22 23 28 38 30 23 16 16 11 350 1 338 279 250 199 199 214 209 194 223 223 221 218 205 219 207 213 211 203
110 101 85 77 76 65 60 69 67 73 2 339 341 358 10 25 31 38 24 3 359 350 360 344 353 338 352 322 312 226 215 159 217 281 286 244 227 227 228 234 218 218 207
95 88 96 95 86 75 63 70 86 71 346 302 329 1 354 349 344 337 315 307 306 307 314 316 319 301 266 270 310 326 326 256 224 235 254 262 314 231 217 219 228 213 211
102 93 105 92 75 64 55 46 48 36 345 331 302 323 316 317 308 304 307 269 255 261 265 282 279 279 278 242 246 280 267 269 255 222 226 235 232 236 222 200 208 227 208